When you browse on this site, cookies collect data to enhance your experience and personalize the content and advertising you see.
Visit our Privacy Policy to learn more. By continuing to use the site, you agree to this use of cookies and data.
  • In Österreich
  • Länderverzeichnis
  • Für 7 Tage
  • Wassertemperatur
  • Wetterkarte
  • News
  • Widgets
  • user-avatar
    Anmelden

    Stündliche Wetter San Juan Tepa

    Heute, 7 Dezember, Samstag

    Zeit Temperatur Niederschläge Wind Luftdruck Luftfeuchtigkeit
    00:00 +11°C° 0 mm 1 m/S 601 mmHg 90%
    01:00 +11°C° 0 mm 1 m/S 601 mmHg 88%
    02:00 +11°C° 0 mm 1 m/S 601 mmHg 86%
    03:00 +10°C° 0 mm 1 m/S 601 mmHg 86%
    04:00 +10°C° 0 mm 1 m/S 601 mmHg 85%
    05:00 +10°C° 0 mm 1 m/S 601 mmHg 85%
    06:00 +10°C° 0 mm 1 m/S 601 mmHg 80%
    07:00 +11°C° 0 mm 1 m/S 602 mmHg 75%
    08:00 +12°C° 0 mm 1 m/S 602 mmHg 70%
    09:00 +14°C° 0 mm 1 m/S 603 mmHg 61%
    10:00 +16°C° 0 mm 1 m/S 603 mmHg 51%
    11:00 +19°C° 0 mm 1 m/S 604 mmHg 41%
    12:00 +20°C° 0 mm 1 m/S 603 mmHg 39%
    13:00 +20°C° 0 mm 2 m/S 603 mmHg 36%
    14:00 +21°C° 0 mm 3 m/S 603 mmHg 34%
    15:00 +19°C° 0 mm 3 m/S 602 mmHg 43%
    16:00 +18°C° 0 mm 3 m/S 602 mmHg 52%
    17:00 +16°C° 0 mm 3 m/S 601 mmHg 60%
    18:00 +15°C° 0 mm 2 m/S 601 mmHg 70%
    19:00 +14°C° 0 mm 2 m/S 601 mmHg 79%
    20:00 +13°C° 0 mm 1 m/S 602 mmHg 88%
    21:00 +13°C° 0 mm 1 m/S 601 mmHg 90%
    22:00 +11°C° 0 mm 0 m/S 601 mmHg 91%
    23:00 +11°C° 0 mm 0 m/S 601 mmHg 93%

    Morgen, 8 Dezember, Sonntag

    Zeit Temperatur Niederschläge Wind Luftdruck Luftfeuchtigkeit
    00:00 +10°C° 0 mm 0 m/S 600 mmHg 94%
    01:00 +10°C° 0 mm 0 m/S 600 mmHg 94%
    02:00 +9°C° 0 mm 0 m/S 599 mmHg 95%
    03:00 +9°C° 0 mm 0 m/S 599 mmHg 94%
    04:00 +9°C° 0 mm 0 m/S 599 mmHg 94%
    05:00 +10°C° 0 mm 1 m/S 598 mmHg 93%
    06:00 +11°C° 0 mm 1 m/S 599 mmHg 84%
    07:00 +13°C° 0 mm 1 m/S 600 mmHg 74%
    08:00 +15°C° 0 mm 1 m/S 601 mmHg 65%
    09:00 +18°C° 0 mm 1 m/S 602 mmHg 53%
    10:00 +20°C° 0 mm 1 m/S 602 mmHg 42%
    11:00 +22°C° 0 mm 1 m/S 602 mmHg 31%
    12:00 +23°C° 0 mm 1 m/S 602 mmHg 29%
    13:00 +23°C° 0 mm 2 m/S 602 mmHg 27%
    14:00 +24°C° 0 mm 3 m/S 601 mmHg 25%
    15:00 +21°C° 0 mm 2 m/S 601 mmHg 31%
    16:00 +20°C° 0 mm 2 m/S 600 mmHg 37%
    17:00 +18°C° 0 mm 2 m/S 599 mmHg 43%
    18:00 +18°C° 0 mm 1 m/S 599 mmHg 50%
    19:00 +16°C° 0 mm 1 m/S 599 mmHg 57%
    20:00 +15°C° 0 mm 1 m/S 599 mmHg 64%
    21:00 +13°C° 0 mm 0 m/S 599 mmHg 64%
    22:00 +13°C° 0 mm 0 m/S 599 mmHg 64%
    23:00 +12°C° 0 mm 0 m/S 598 mmHg 65%

    übermorgen, 9 Dezember, Montag

    Zeit Temperatur Niederschläge Wind Luftdruck Luftfeuchtigkeit
    00:00 +12°C° 0 mm 0 m/S 598 mmHg 64%
    01:00 +11°C° 0 mm 0 m/S 598 mmHg 63%
    02:00 +12°C° 0 mm 1 m/S 597 mmHg 63%
    03:00 +11°C° 0 mm 1 m/S 597 mmHg 63%
    04:00 +11°C° 0 mm 1 m/S 597 mmHg 63%
    05:00 +11°C° 0 mm 1 m/S 597 mmHg 63%
    06:00 +13°C° 0 mm 1 m/S 598 mmHg 55%
    07:00 +15°C° 0 mm 1 m/S 599 mmHg 48%
    08:00 +18°C° 0 mm 1 m/S 600 mmHg 41%
    09:00 +20°C° 0 mm 1 m/S 601 mmHg 34%
    10:00 +22°C° 0 mm 1 m/S 601 mmHg 28%
    11:00 +22°C° 0 mm 0 m/S 601 mmHg 22%
    12:00 +24°C° 0 mm 1 m/S 601 mmHg 20%
    13:00 +25°C° 0 mm 1 m/S 600 mmHg 18%
    14:00 +26°C° 0 mm 1 m/S 600 mmHg 16%
    15:00 +24°C° 0 mm 1 m/S 599 mmHg 21%
    16:00 +22°C° 0 mm 1 m/S 599 mmHg 25%
    17:00 +20°C° 0 mm 1 m/S 598 mmHg 30%
    18:00 +19°C° 0 mm 1 m/S 598 mmHg 34%
    19:00 +18°C° 0 mm 1 m/S 598 mmHg 38%
    20:00 +16°C° 0 mm 1 m/S 598 mmHg 42%
    21:00 +16°C° 0 mm 1 m/S 598 mmHg 43%
    22:00 +15°C° 0 mm 1 m/S 598 mmHg 43%
    23:00 +15°C° 0 mm 1 m/S 598 mmHg 44%

    10 Dezember, Dienstag

    Zeit Temperatur Niederschläge Wind Luftdruck Luftfeuchtigkeit
    00:00 +14°C° 0 mm 1 m/S 597 mmHg 47%
    01:00 +14°C° 0 mm 1 m/S 597 mmHg 50%
    02:00 +14°C° 0 mm 2 m/S 597 mmHg 53%
    03:00 +13°C° 0 mm 1 m/S 597 mmHg 57%
    04:00 +13°C° 0 mm 1 m/S 597 mmHg 62%
    05:00 +12°C° 0 mm 1 m/S 597 mmHg 66%
    06:00 +14°C° 0 mm 1 m/S 598 mmHg 61%
    07:00 +16°C° 0 mm 1 m/S 599 mmHg 57%
    08:00 +19°C° 0 mm 1 m/S 600 mmHg 52%
    09:00 +20°C° 0 mm 1 m/S 601 mmHg 46%
    10:00 +22°C° 0 mm 1 m/S 601 mmHg 41%
    11:00 +22°C° 0 mm 0 m/S 601 mmHg 35%
    12:00 +24°C° 0 mm 1 m/S 601 mmHg 32%
    13:00 +25°C° 0 mm 1 m/S 601 mmHg 28%
    14:00 +26°C° 0 mm 1 m/S 601 mmHg 25%
    15:00 +24°C° 0 mm 2 m/S 601 mmHg 38%
    16:00 +21°C° 0 mm 3 m/S 600 mmHg 50%
    17:00 +19°C° 0 mm 3 m/S 600 mmHg 62%
    18:00 +18°C° 0 mm 3 m/S 600 mmHg 70%
    19:00 +16°C° 0 mm 3 m/S 601 mmHg 78%
    20:00 +14°C° 0 mm 3 m/S 601 mmHg 86%
    21:00 +15°C° 0 mm 2 m/S 601 mmHg 85%
    22:00 +15°C° 0 mm 2 m/S 601 mmHg 83%
    23:00 +14°C° 0 mm 2 m/S 601 mmHg 82%

    11 Dezember, Mittwoch

    Zeit Temperatur Niederschläge Wind Luftdruck Luftfeuchtigkeit
    00:00 +14°C° 0 mm 2 m/S 601 mmHg 84%
    01:00 +13°C° 0 mm 2 m/S 601 mmHg 86%
    02:00 +13°C° 0 mm 2 m/S 600 mmHg 88%
    03:00 +13°C° 0 mm 2 m/S 600 mmHg 87%
    04:00 +13°C° 0 mm 2 m/S 601 mmHg 87%
    05:00 +12°C° 0 mm 2 m/S 601 mmHg 87%
    06:00 +13°C° 0 mm 2 m/S 601 mmHg 85%
    07:00 +13°C° 0 mm 2 m/S 602 mmHg 83%
    08:00 +13°C° 0 mm 2 m/S 602 mmHg 82%
    09:00 +13°C° 0 mm 2 m/S 602 mmHg 78%
    10:00 +14°C° 0 mm 2 m/S 602 mmHg 73%
    11:00 +14°C° 0 mm 3 m/S 602 mmHg 69%
    12:00 +14°C° 0 mm 3 m/S 601 mmHg 67%
    13:00 +16°C° 0 mm 3 m/S 601 mmHg 65%
    14:00 +16°C° 0 mm 3 m/S 601 mmHg 62%
    15:00 +14°C° 0 mm 3 m/S 600 mmHg 67%
    16:00 +13°C° 0 mm 3 m/S 600 mmHg 72%
    17:00 +12°C° 0 mm 3 m/S 600 mmHg 77%
    18:00 +12°C° 0 mm 2 m/S 600 mmHg 79%
    19:00 +12°C° 0 mm 2 m/S 601 mmHg 81%
    20:00 +10°C° 0 mm 2 m/S 601 mmHg 83%
    21:00 +11°C° 0 mm 1 m/S 601 mmHg 83%
    22:00 +11°C° 0 mm 1 m/S 601 mmHg 83%
    23:00 +10°C° 0 mm 0 m/S 601 mmHg 84%

    12 Dezember, Donnerstag

    Zeit Temperatur Niederschläge Wind Luftdruck Luftfeuchtigkeit
    00:00 +10°C° 0 mm 0 m/S 600 mmHg 86%
    01:00 +9°C° 0 mm 0 m/S 600 mmHg 88%
    02:00 +9°C° 0 mm 0 m/S 599 mmHg 90%
    03:00 +9°C° 0 mm 0 m/S 599 mmHg 90%
    04:00 +9°C° 0 mm 0 m/S 599 mmHg 91%
    05:00 +10°C° 0 mm 1 m/S 599 mmHg 91%
    06:00 +11°C° 0 mm 1 m/S 600 mmHg 85%
    07:00 +12°C° 0 mm 1 m/S 601 mmHg 78%
    08:00 +14°C° 0 mm 1 m/S 601 mmHg 71%
    09:00 +16°C° 0 mm 1 m/S 602 mmHg 63%
    10:00 +19°C° 0 mm 1 m/S 602 mmHg 55%
    11:00 +21°C° 0 mm 1 m/S 603 mmHg 47%
    12:00 +21°C° 0 mm 1 m/S 602 mmHg 43%
    13:00 +21°C° 0 mm 2 m/S 602 mmHg 40%
    14:00 +22°C° 0 mm 3 m/S 601 mmHg 36%
    15:00 +20°C° 0 mm 2 m/S 601 mmHg 42%
    16:00 +19°C° 0 mm 2 m/S 600 mmHg 49%
    17:00 +18°C° 0 mm 2 m/S 600 mmHg 55%
    18:00 +18°C° 0 mm 1 m/S 600 mmHg 61%
    19:00 +16°C° 0 mm 1 m/S 600 mmHg 66%
    20:00 +14°C° 0 mm 0 m/S 600 mmHg 71%
    21:00 +14°C° 0 mm 0 m/S 600 mmHg 70%
    22:00 +14°C° 0 mm 0 m/S 600 mmHg 70%
    23:00 +14°C° 0 mm 0 m/S 600 mmHg 69%
    Mehr zeigen